Date,TemperatureHighF,TemperatureAvgF,TemperatureLowF,DewpointHighF,DewpointAvgF,DewpointLowF,HumidityHigh,HumidityAvg,HumidityLow,PressureMaxIn,PressureMinIn,WindSpeedMaxMPH,WindSpeedAvgMPH,GustSpeedMaxMPH,PrecipitationSumIn
2014-1-1,28,26,25,-100,-100,-100,0,0,100,0.00,40.00,0,-999,0,0.01
2014-1-2,37,32,25,-100,-100,-100,0,0,100,0.00,40.00,0,-999,0,0.00
2014-1-3,35,32,29,-100,-100,-100,0,0,100,0.00,40.00,0,-999,0,0.00
2014-1-4,18,11,5,-100,-100,-100,0,0,100,0.00,40.00,0,-999,0,0.01
2014-1-5,1,-7,-13,-100,-100,-100,0,0,100,0.00,40.00,0,-999,0,0.02
2014-1-6,33,33,33,-100,-100,-100,0,0,100,0.00,40.00,0,-999,0,0.00
2014-1-11,34,34,33,-100,-100,-100,0,0,100,0.00,40.00,0,-999,0,0.00
2014-1-12,27,26,26,-100,-100,-100,0,0,100,0.00,40.00,0,-999,0,0.00
2014-1-13,34,30,23,-100,-100,-100,0,0,100,0.00,40.00,0,-999,0,0.00
2014-1-14,32,30,29,-100,-100,-100,0,0,100,0.00,40.00,0,-999,0,0.01
2014-1-15,37,36,33,-100,-100,-100,0,0,100,0.00,40.00,0,-999,0,0.00
2014-1-16,37,34,31,-100,-100,-100,0,0,100,0.00,40.00,0,-999,0,0.00
2014-1-17,40,36,34,-100,-100,-100,0,0,100,0.00,40.00,0,-999,0,0.00
2014-1-18,43,36,30,-100,-100,-100,0,0,100,0.00,40.00,0,-999,0,0.00
2014-1-19,47,42,31,-100,-100,-100,0,0,100,0.00,40.00,0,-999,0,0.00
2014-1-20,37,28,21,-100,-100,-100,0,0,100,0.00,40.00,0,-999,0,0.00
2014-1-21,41,39,37,-100,-100,-100,0,0,100,0.00,40.00,0,-999,0,0.00
2014-1-22,30,29,28,-100,-100,-100,0,0,100,0.00,40.00,0,-999,0,0.00
2014-1-26,33,21,10,-100,-100,-100,0,0,100,0.00,40.00,0,-999,0,0.00
2014-1-27,9,9,9,-100,-100,-100,0,0,100,0.00,40.00,0,-999,0,0.00
2014-1-29,32,31,30,-100,-100,-100,0,0,100,0.00,40.00,0,-999,0,0.01
2014-1-31,20,13,4,-100,-100,-100,0,0,100,0.00,40.00,0,-999,0,0.01
2014-2-1,15,7,1,-100,-100,-100,0,0,100,0.00,40.00,0,-999,0,0.01
2014-2-2,20,17,14,-100,-100,-100,0,0,100,0.00,40.00,0,-999,0,0.00
2014-2-3,14,5,-6,-100,-100,-100,0,0,100,0.00,40.00,0,-999,0,0.01
2014-2-4,-5,-10,-17,-100,-100,-100,0,0,100,0.00,40.00,0,-999,0,0.01
2014-2-7,22,17,8,-100,-100,-100,0,0,100,0.00,40.00,0,-999,0,0.00
2014-2-12,35,30,25,-100,-100,-100,0,0,100,0.00,40.00,0,-999,0,0.00
2014-2-13,35,31,25,-100,-100,-100,0,0,100,0.00,40.00,0,-999,0,0.00
2014-2-14,31,28,25,-100,-100,-100,0,0,100,0.00,40.00,0,-999,0,0.00
2014-2-15,37,32,28,-100,-100,-100,0,0,100,0.00,40.00,0,-999,0,0.00
2014-2-17,30,28,26,-100,-100,-100,0,0,100,0.00,40.00,0,-999,0,0.00
2014-2-18,32,32,32,-100,-100,-100,0,0,100,0.00,40.00,0,-999,0,0.00
2014-2-19,23,23,22,-100,-100,-100,0,0,100,0.00,40.00,0,-999,0,0.00
2014-2-20,23,20,16,-100,-100,-100,0,0,100,0.00,40.00,0,-999,0,0.02
2014-2-21,25,21,14,-100,-100,-100,0,0,100,0.00,40.00,0,-999,0,0.02
2014-2-22,16,15,14,-100,-100,-100,0,0,100,0.00,40.00,0,-999,0,0.00
2014-2-23,6,4,1,-100,-100,-100,0,0,100,0.00,40.00,0,-999,0,0.01
2014-2-24,-3,-3,-4,-100,-100,-100,0,0,100,0.00,40.00,0,-999,0,0.00
2014-2-25,13,7,3,-100,-100,-100,0,0,100,0.00,40.00,0,-999,0,0.01
2014-2-26,35,30,24,-100,-100,-100,0,0,100,0.00,40.00,0,-999,0,0.00
2014-2-27,41,36,29,-100,-100,-100,0,0,100,0.00,40.00,0,-999,0,0.00
2014-2-28,7,-2,-12,-100,-100,-100,0,0,100,0.00,40.00,0,-999,0,0.01
2014-3-1,-10,-14,-17,-100,-100,-100,0,0,100,0.00,40.00,0,-999,0,0.01
2014-3-2,34,17,-8,-100,-100,-100,0,0,100,0.00,40.00,0,-999,0,0.00
2014-3-3,43,36,31,-100,-100,-100,0,0,100,0.00,40.00,0,-999,0,0.01
2014-3-4,38,34,31,-100,-100,-100,0,0,100,0.00,40.00,0,-999,0,0.01
2014-3-5,43,36,32,-100,-100,-100,0,0,100,0.00,40.00,0,-999,0,0.00
2014-3-6,39,37,35,-100,-100,-100,0,0,100,0.00,40.00,0,-999,0,0.01
2014-3-7,41,35,32,-100,-100,-100,0,0,100,0.00,40.00,0,-999,0,0.00
2014-3-12,41,32,23,-100,-100,-100,0,0,100,0.00,40.00,0,-999,0,0.00
2014-3-13,43,39,35,-100,-100,-100,0,0,100,0.00,40.00,0,-999,0,0.00
2014-3-14,41,36,29,-100,-100,-100,0,0,100,0.00,40.00,0,-999,0,0.00
2014-3-15,39,33,28,-100,-100,-100,0,0,100,0.00,40.00,0,-999,0,0.00
2014-3-16,44,42,38,-100,-100,-100,0,0,100,0.00,40.00,0,-999,0,0.00
2014-3-17,36,31,26,-100,-100,-100,0,0,100,0.00,40.00,0,-999,0,0.00
2014-3-18,33,28,23,-100,-100,-100,0,0,100,0.00,40.00,0,-999,0,0.00
2014-3-19,40,36,34,-100,-100,-100,0,0,100,0.00,40.00,0,-999,0,0.00
2014-3-20,32,28,25,-100,-100,-100,0,0,100,0.00,40.00,0,-999,0,0.00
2014-3-21,20,14,10,-100,-100,-100,0,0,100,0.00,40.00,0,-999,0,0.00
2014-3-22,23,14,1,-100,-100,-100,0,0,100,0.00,40.00,0,-999,0,0.01
2014-3-23,32,27,23,-100,-100,-100,0,0,100,0.00,40.00,0,-999,0,0.01
2014-3-26,46,42,39,-100,-100,-100,0,0,100,0.00,40.00,0,-999,0,0.00
2014-3-27,35,28,23,-100,-100,-100,0,0,100,0.00,40.00,0,-999,0,0.00
2014-3-28,32,27,23,-100,-100,-100,0,0,100,0.00,40.00,0,-999,0,0.00
2014-3-29,38,36,34,-100,-100,-100,0,0,100,0.00,40.00,0,-999,0,0.00
2014-3-30,37,33,31,-100,-100,-100,0,0,100,0.00,40.00,0,-999,0,0.00
2014-3-31,37,30,25,-100,-100,-100,0,0,100,0.00,40.00,0,-999,0,0.00
2014-4-1,39,32,24,-100,-100,-100,0,0,100,0.00,40.00,0,-999,0,0.00
2014-4-2,42,31,23,-100,-100,-100,0,0,100,0.00,40.00,0,-999,0,0.00
2014-4-3,44,35,26,-100,-100,-100,0,0,100,0.00,40.00,0,-999,0,0.00
2014-4-4,45,35,30,-100,-100,-100,0,0,100,0.00,40.00,0,-999,0,0.00
2014-4-5,41,35,29,-100,-100,-100,0,0,100,0.00,40.00,0,-999,0,0.01
2014-4-6,41,38,32,-100,-100,-100,0,0,100,0.00,40.00,0,-999,0,0.00
2014-4-7,50,43,32,-100,-100,-100,0,0,100,0.00,40.00,0,-999,0,0.00
2014-4-8,58,50,42,-100,-100,-100,0,0,100,0.00,40.00,0,-999,0,0.00
2014-4-9,51,44,35,-100,-100,-100,0,0,100,0.00,40.00,0,-999,0,0.00
2014-4-10,47,39,33,-100,-100,-100,0,0,100,0.00,40.00,0,-999,0,0.00
2014-4-11,53,43,36,-100,-100,-100,0,0,100,0.00,40.00,0,-999,0,0.00
2014-4-12,34,28,18,-100,-100,-100,0,0,100,0.00,40.00,0,-999,0,0.01
2014-4-13,34,26,14,-100,-100,-100,0,0,100,0.00,40.00,0,-999,0,0.00
2014-4-15,35,35,35,-100,-100,-100,0,0,100,0.00,40.00,0,-999,0,0.00
2014-4-17,50,43,33,-100,-100,-100,0,0,100,0.00,40.00,0,-999,0,0.00
2014-4-18,44,35,32,-100,-100,-100,0,0,100,0.00,40.00,0,-999,0,0.01
2014-4-19,52,41,28,-100,-100,-100,0,0,100,0.00,40.00,0,-999,0,0.01
2014-4-20,48,41,35,-100,-100,-100,0,0,100,0.00,40.00,0,-999,0,0.01
2014-4-21,57,47,34,-100,-100,-100,0,0,100,0.00,40.00,0,-999,0,0.00
2014-4-22,59,47,35,-100,-100,-100,0,0,100,0.00,40.00,0,-999,0,0.01
2014-4-23,40,32,27,-100,-100,-100,0,0,100,0.00,40.00,0,-999,0,0.02
2014-4-24,41,36,30,-100,-100,-100,0,0,100,0.00,40.00,0,-999,0,0.02
2014-4-25,50,40,30,-100,-100,-100,0,0,100,0.00,40.00,0,-999,0,0.01
2014-4-26,46,36,30,-100,-100,-100,0,0,100,0.00,40.00,0,-999,0,0.03
2014-4-27,44,35,29,-100,-100,-100,0,0,100,0.00,40.00,0,-999,0,0.01
2014-4-28,42,33,28,-100,-100,-100,0,0,100,0.00,40.00,0,-999,0,0.01
2014-4-29,45,36,30,-100,-100,-100,0,0,100,0.00,40.00,0,-999,0,0.00
2014-4-30,54,43,32,-100,-100,-100,0,0,100,0.00,40.00,0,-999,0,0.00
2014-5-1,61,51,40,-100,-100,-100,0,0,100,0.00,40.00,0,-999,0,0.00
2014-5-2,60,53,46,-100,-100,-100,0,0,100,0.00,40.00,0,-999,0,0.01
2014-5-3,46,40,36,-100,-100,-100,0,0,100,0.00,40.00,0,-999,0,0.01
2014-5-4,48,40,32,-100,-100,-100,0,0,100,0.00,40.00,0,-999,0,0.00
2014-5-5,51,45,39,-100,-100,-100,0,0,100,0.00,40.00,0,-999,0,0.00
2014-5-6,36,32,28,-100,-100,-100,0,0,100,0.00,40.00,0,-999,0,0.00
2014-5-13,49,43,39,-100,-100,-100,0,0,100,0.00,40.00,0,-999,0,0.01
2014-5-14,56,47,37,-100,-100,-100,0,0,100,0.00,40.00,0,-999,0,0.00
2014-5-15,62,53,44,-100,-100,-100,0,0,100,0.00,40.00,0,-999,0,0.01
2014-5-16,55,46,38,-100,-100,-100,0,0,100,0.00,40.00,0,-999,0,0.01
2014-5-17,59,46,38,-100,-100,-100,0,0,100,0.00,40.00,0,-999,0,0.00
2014-5-18,47,44,39,-100,-100,-100,0,0,100,0.00,40.00,0,-999,0,0.00
2014-5-19,51,43,38,-100,-100,-100,0,0,100,0.00,40.00,0,-999,0,0.02
2014-5-20,55,46,36,-100,-100,-100,0,0,100,0.00,40.00,0,-999,0,0.01
2014-5-21,62,57,50,-100,-100,-100,0,0,100,0.00,40.00,0,-999,0,0.02
2014-5-22,68,58,45,-100,-100,-100,0,0,100,0.00,40.00,0,-999,0,0.01
2014-5-23,72,60,50,-100,-100,-100,0,0,100,0.00,40.00,0,-999,0,0.01
2014-5-24,63,55,46,-100,-100,-100,0,0,100,0.00,40.00,0,-999,0,0.01
2014-5-25,64,54,43,-100,-100,-100,0,0,100,0.00,40.00,0,-999,0,0.00
2014-5-26,68,57,50,-100,-100,-100,0,0,100,0.00,40.00,0,-999,0,0.00
2014-5-27,62,51,45,-100,-100,-100,0,0,100,0.00,40.00,0,-999,0,0.00
2014-5-28,72,62,50,-100,-100,-100,0,0,100,0.00,40.00,0,-999,0,0.01
2014-5-29,55,47,41,-100,-100,-100,0,0,100,0.00,40.00,0,-999,0,0.00
2014-5-30,63,53,40,-100,-100,-100,0,0,100,0.00,40.00,0,-999,0,0.00
2014-5-31,59,49,40,-100,-100,-100,0,0,100,0.00,40.00,0,-999,0,0.01
2014-6-1,54,46,40,-100,-100,-100,0,0,100,0.00,40.00,0,-999,0,0.00
2014-6-2,62,55,41,-100,-100,-100,0,0,100,0.00,40.00,0,-999,0,0.01
2014-6-3,66,58,47,-100,-100,-100,0,0,100,0.00,40.00,0,-999,0,0.01
2014-6-4,61,53,44,-100,-100,-100,0,0,100,0.00,40.00,0,-999,0,0.00
2014-6-5,61,55,40,-100,-100,-100,0,0,100,0.00,40.00,0,-999,0,0.00
2014-6-6,52,44,39,-100,-100,-100,0,0,100,0.00,40.00,0,-999,0,0.00
2014-6-7,58,48,36,-100,-100,-100,0,0,100,0.00,40.00,0,-999,0,0.01
2014-6-8,62,52,42,-100,-100,-100,0,0,100,0.00,40.00,0,-999,0,0.01
2014-6-9,67,56,46,-100,-100,-100,0,0,100,0.00,40.00,0,-999,0,0.01
2014-6-10,63,55,45,-100,-100,-100,0,0,100,0.00,40.00,0,-999,0,0.01
2014-6-11,53,45,38,-100,-100,-100,0,0,100,0.00,40.00,0,-999,0,0.00
2014-6-12,62,50,38,-100,-100,-100,0,0,100,0.00,40.00,0,-999,0,0.01
2014-6-13,53,48,41,-100,-100,-100,0,0,100,0.00,40.00,0,-999,0,0.01
2014-6-14,47,41,38,-100,-100,-100,0,0,100,0.00,40.00,0,-999,0,0.00
2014-6-15,57,47,39,-100,-100,-100,0,0,100,0.00,40.00,0,-999,0,0.02
2014-6-16,52,45,38,-100,-100,-100,0,0,100,0.00,40.00,0,-999,0,0.01
2014-6-17,46,43,39,-100,-100,-100,0,0,100,0.00,40.00,0,-999,0,0.02
2014-6-18,45,40,36,-100,-100,-100,0,0,100,0.00,40.00,0,-999,0,0.01
2014-6-19,57,47,39,-100,-100,-100,0,0,100,0.00,40.00,0,-999,0,0.06
2014-6-20,64,54,46,-100,-100,-100,0,0,100,0.00,40.00,0,-999,0,0.01
2014-6-21,64,54,45,-100,-100,-100,0,0,100,0.00,40.00,0,-999,0,0.02
2014-6-22,59,51,44,-100,-100,-100,0,0,100,0.00,40.00,0,-999,0,0.01
2014-6-23,61,50,43,-100,-100,-100,0,0,100,0.00,40.00,0,-999,0,0.00
2014-6-24,62,53,46,-100,-100,-100,0,0,100,0.00,40.00,0,-999,0,0.01
2014-6-25,61,53,47,-100,-100,-100,0,0,100,0.00,40.00,0,-999,0,0.01
2014-6-26,58,51,47,-100,-100,-100,0,0,100,0.00,40.00,0,-999,0,0.01
2014-6-27,61,55,47,-100,-100,-100,0,0,100,0.00,40.00,0,-999,0,0.00
2014-6-28,56,50,44,-100,-100,-100,0,0,100,0.00,40.00,0,-999,0,0.01
2014-6-29,58,51,45,-100,-100,-100,0,0,100,0.00,40.00,0,-999,0,0.00
2014-6-30,58,51,43,-100,-100,-100,0,0,100,0.00,40.00,0,-999,0,0.01
2014-7-1,66,57,45,-100,-100,-100,0,0,100,0.00,40.00,0,-999,0,0.00
2014-7-2,74,63,48,-100,-100,-100,0,0,100,0.00,40.00,0,-999,0,0.00
2014-7-3,70,63,57,-100,-100,-100,0,0,100,0.00,40.00,0,-999,0,0.01
2014-7-4,79,65,57,-100,-100,-100,0,0,100,0.00,40.00,0,-999,0,0.01
2014-7-5,74,65,58,-100,-100,-100,0,0,100,0.00,40.00,0,-999,0,0.00
2014-7-6,75,67,61,-100,-100,-100,0,0,100,0.00,40.00,0,-999,0,0.00
2014-7-7,68,59,52,-100,-100,-100,0,0,100,0.00,40.00,0,-999,0,0.01
2014-7-8,72,62,48,-100,-100,-100,0,0,100,0.00,40.00,0,-999,0,0.01
2014-7-9,72,64,54,-100,-100,-100,0,0,100,0.00,40.00,0,-999,0,0.00
2014-7-10,77,67,57,-100,0,200,0,0,100,0.00,40.00,0,0,0,0.00
2014-7-11,70,58,51,-100,0,200,0,0,100,0.00,40.00,0,0,0,0.01
2014-7-12,75,64,51,-100,0,200,0,0,100,0.00,40.00,0,0,0,0.00
2014-7-13,78,71,57,-100,0,200,0,0,100,0.00,40.00,0,0,0,0.00
2014-7-14,73,64,54,-100,0,200,0,0,100,0.00,40.00,0,0,0,0.01
2014-7-15,58,53,49,-100,0,200,0,0,100,0.00,40.00,0,0,0,0.04